Location: McCall
(45.0000°N, 116.0000°W)
Time: 16:01:18
(UTC-07:00)

Amateur Radio Satellites - All Passes

Search period start: 27 November 2014 15:31
Search period end: 28 November 2014 15:31
Location: McCall, 45.0000°N, 116.0000°W

Satellite Date Start Highest point End Downlink Frequencies (MHz)
Time Altitude Azimuth
O/OREOS (USA 219) 27 Nov 15:37:34 15:42:00 58° 63° (ENE) 15:46:25 437.305
KKS-1 27 Nov 15:46:32 15:50:56 63° 287° (WNW) 15:55:19 437.445
RS-15 27 Nov 15:47:52 15:57:58 45° 110° (ESE) 16:08:03 29.354- 29.394
BEESAT 27 Nov 15:49:22 15:52:32 18° 299° (WNW) 15:55:42 436.000
HORYU 2 27 Nov 16:05:45 16:09:20 24° 266° (W) 16:12:57 437.375
AO-7 27 Nov 16:08:41 16:16:59 78° 253° (WSW) 16:25:22 29.400- 29.500
YUBILEINY 27 Nov 16:10:56 16:16:50 21° 283° (WNW) 16:22:44 435.215
MaSat-1 27 Nov 16:17:10 16:19:23 20° 304° (NW) 16:21:28 437.345
PHONESAT 2.4 27 Nov 16:19:23 16:22:51 38° 172° (S) 16:26:19 2401.200-2431.200
VERMONT LUNAR 27 Nov 16:23:14 16:26:39 40° 176° (S) 16:30:05 437.305
CUTE-I 27 Nov 16:37:23 16:40:33 16° 57° (ENE) 16:43:43 437.470
STARS 27 Nov 16:39:07 16:42:50 28° 294° (WNW) 16:46:33 437.465
MOZHAYETS 4 27 Nov 17:03:55 17:07:55 28° 94° (E) 17:11:54
JAS-2 27 Nov 17:11:10 17:18:54 87° 255° (WSW) 17:26:49 435.910
O/OREOS (USA 219) 27 Nov 17:18:18 17:20:54 15° 261° (W) 17:23:31 437.305
Cubesat XI-IV 27 Nov 17:34:01 17:39:07 46° 69° (ENE) 17:44:13 437.490
PRISM 27 Nov 17:39:13 17:39:55 10° 88° (E) 17:40:38 437.425
PHONESAT 2.4 27 Nov 17:57:50 18:01:18 37° 189° (S) 18:04:45 2401.200-2431.200
RS-15 27 Nov 17:59:13 18:09:59 60° 315° (NW) 18:20:53 29.354- 29.394
VERMONT LUNAR 27 Nov 18:01:31 18:04:46 31° 193° (SSW) 18:08:01 437.305
AO-7 27 Nov 18:06:18 18:11:05 16° 273° (W) 18:15:55 29.400- 29.500
GONETS M04 27 Nov 18:07:03 18:13:47 23° 61° (ENE) 18:20:27
CUTE-I 27 Nov 18:14:34 18:19:56 83° 256° (WSW) 18:25:20 437.470
STRAND 1 27 Nov 18:28:50 18:31:56 16° 90° (E) 18:35:00 437.568
HO-68 27 Nov 18:33:55 18:37:36 15° 47° (NE) 18:41:16 435.675
MOZHAYETS 4 27 Nov 18:40:58 18:45:10 34° 292° (WNW) 18:49:21
AIST 1 27 Nov 18:50:00 18:51:42 12° 83° (E) 18:53:25
CUBESAT XI-V 27 Nov 18:50:38 18:54:35 26° 94° (E) 18:58:28 437.345
JAS-2 27 Nov 18:59:40 19:04:53 19° 274° (W) 19:10:12 435.910
PRISM 27 Nov 19:11:45 19:16:01 77° 285° (WNW) 19:20:13 437.425
Cubesat XI-IV 27 Nov 19:14:59 19:19:24 26° 266° (W) 19:23:50 437.490
BRITE-PL 27 Nov 19:20:39 19:22:29 12° 61° (ENE) 19:24:17 437.365/2234.400
CUTE 1.7 + AOD 2 27 Nov 19:33:15 19:35:26 14° 61° (ENE) 19:37:38 437.475
PHONESAT 2.4 27 Nov 19:37:03 19:39:33 17° 205° (SSW) 19:42:02 2401.200-2431.200
VERMONT LUNAR 27 Nov 19:41:03 19:42:35 12° 209° (SSW) 19:44:08 437.305
PCSat 27 Nov 19:45:03 19:50:19 55° 116° (ESE) 19:55:37 145.827
BEESAT 3 27 Nov 19:51:20 19:54:57 30° 116° (ESE) 19:58:37 437.485
CUTE-I 27 Nov 19:59:16 20:00:48 11° 273° (W) 20:02:21 437.470
SEEDS 27 Nov 20:02:25 20:05:45 23° 66° (ENE) 20:09:06 437.485
GONETS M04 27 Nov 20:02:57 20:11:50 86° 263° (W) 20:20:37
STRAND 1 27 Nov 20:06:32 20:11:37 68° 287° (WNW) 20:16:40 437.568
UKube-1 27 Nov 20:08:02 20:09:22 11° 58° (ENE) 20:10:43 .
BEESAT 2 27 Nov 20:08:06 20:11:58 41° 118° (ESE) 20:15:54 435.950
DELFI C3 27 Nov 20:13:34 20:14:10 10° 59° (ENE) 20:14:46 145.870
AAUSAT CUBESAT 2 27 Nov 20:15:13 20:18:34 24° 66° (ENE) 20:21:56 437.432
RS-15 27 Nov 20:16:03 20:25:12 29° 346° (NNW) 20:34:32 29.354- 29.394
Oscar 11 27 Nov 20:16:39 20:19:00 15° 61° (ENE) 20:21:21 145.826/435.025
HO-68 27 Nov 20:16:53 20:23:57 64° 68° (ENE) 20:31:03 435.675
GOMX 1 27 Nov 20:17:46 20:21:47 30° 69° (ENE) 20:25:36 467.674
AIST 1 27 Nov 20:24:22 20:28:45 67° 280° (W) 20:33:11
CUBESAT XI-V 27 Nov 20:27:50 20:32:05 35° 292° (WNW) 20:36:17 437.345
COMPASS 1 27 Nov 20:31:17 20:35:10 39° 70° (ENE) 20:39:04 437.405
CANX-2 27 Nov 20:32:19 20:36:27 59° 73° (ENE) 20:40:38 2200.000
DX 1 27 Nov 20:43:00 20:46:35 25° 65° (ENE) 20:50:10 434.975-435.025
UWE-3 27 Nov 20:44:20 20:46:31 14° 62° (ENE) 20:48:42 435.000/436.395/437.385
CUBEBUG 2 27 Nov 20:47:38 20:50:24 17° 64° (ENE) 20:53:10 437.445
AIST 2 27 Nov 20:51:06 20:55:14 56° 121° (ESE) 20:59:28 435.215
BRITE-PL 27 Nov 20:55:32 21:00:28 87° 257° (WSW) 21:05:02 437.365/2234.400
DOVE 4 27 Nov 21:03:50 21:08:19 64° 74° (ENE) 21:12:35 437.250
CUTE 1.7 + AOD 2 27 Nov 21:06:41 21:10:52 64° 259° (W) 21:15:05 437.475
ZACube-1 27 Nov 21:13:34 21:16:53 23° 66° (ENE) 21:20:13 437.345
VELOX 1 27 Nov 21:21:57 21:25:19 21° 64° (ENE) 21:28:41 145.980
CINEMA 3 27 Nov 21:24:59 21:29:16 65° 74° (ENE) 21:33:27 145.822/145.860
BEESAT 3 27 Nov 21:29:24 21:33:08 32° 315° (NW) 21:36:56 437.485
PCSat 27 Nov 21:29:24 21:34:03 28° 316° (NW) 21:38:43 145.827
ESTCUBE 1 27 Nov 21:30:16 21:31:29 11° 57° (ENE) 21:32:41 437.505/2401.250
SEEDS 27 Nov 21:37:37 21:41:26 34° 263° (W) 21:45:17 437.485
UKube-1 27 Nov 21:40:30 21:44:52 88° 256° (WSW) 21:49:15 .
DELFI C3 27 Nov 21:44:44 21:48:48 85° 256° (WSW) 21:52:56 145.870
BEESAT 2 27 Nov 21:46:52 21:50:24 26° 317° (NW) 21:53:58 435.950
FUNcube-1 27 Nov 21:47:10 21:51:14 51° 72° (ENE) 21:55:16 145.935
AISAT 27 Nov 21:48:33 21:52:41 38° 69° (ENE) 21:56:50 437.250
STRAND 1 27 Nov 21:48:54 21:49:51 11° 306° (NW) 21:50:48 437.568
AAUSAT CUBESAT 2 27 Nov 21:50:22 21:54:07 32° 264° (W) 21:57:54 437.432
Oscar 11 27 Nov 21:50:24 21:54:40 64° 259° (W) 21:58:58 145.826/435.025
50 SAT 27 Nov 21:52:00 21:55:31 29° 69° (ENE) 21:59:02 437.505
CUBEBUG 1 27 Nov 21:55:11 21:58:08 18° 63° (ENE) 22:01:05 437.445
GOMX 1 27 Nov 21:55:47 21:59:53 30° 264° (W) 22:03:48 467.674
GONETS M04 27 Nov 22:01:44 22:07:16 19° 285° (WNW) 22:12:48
HO-68 27 Nov 22:06:12 22:12:07 27° 267° (W) 22:18:05 435.675
COMPASS 1 27 Nov 22:08:00 22:11:04 20° 268° (W) 22:14:09 437.405
CANX-2 27 Nov 22:10:43 22:12:48 13° 271° (W) 22:14:53 2200.000
HUMSAT D 27 Nov 22:16:28 22:20:33 67° 74° (ENE) 22:24:39 437.325/437.525
UNISAT 6 27 Nov 22:18:15 22:20:40 14° 90° (E) 22:23:05 437.425
UWE-3 27 Nov 22:18:27 22:22:37 61° 259° (W) 22:26:46 435.000/436.395/437.385
DX 1 27 Nov 22:18:40 22:22:41 34° 262° (W) 22:26:42 434.975-435.025
CUBEBUG 2 27 Nov 22:22:43 22:26:48 47° 261° (W) 22:30:51 437.445
AIST 2 27 Nov 22:30:51 22:34:12 22° 320° (NW) 22:37:36 435.215
RS-15 27 Nov 22:32:25 22:42:00 32° 21° (NNE) 22:51:51 29.354- 29.394
POLYITAN 1 27 Nov 22:41:11 22:43:48 16° 91° (E) 22:46:25 437.675
QB50P2 27 Nov 22:42:18 22:44:59 16° 91° (E) 22:47:40 145.880/145.840
DANDE 27 Nov 22:42:32 22:44:37 13° 69° (ENE) 22:46:55 436.750
DOVE 4 27 Nov 22:44:20 22:46:28 13° 270° (W) 22:48:34 437.250
ANTELSAT 27 Nov 22:46:09 22:49:58 27° 95° (E) 22:53:51 437.575/2403.000
DUCHIFAT 1 27 Nov 22:46:47 22:49:41 18° 92° (E) 22:52:33 145.980
ZACube-1 27 Nov 22:49:21 22:53:09 33° 263° (W) 22:56:55 437.345
TISAT 1 27 Nov 22:54:17 22:57:14 19° 64° (ENE) 23:00:12 437.305
VELOX 1 27 Nov 22:57:22 23:01:38 43° 261° (W) 23:05:55 145.980
ISS 27 Nov 23:00:45 23:03:32 26° 138° (SE) 23:06:20 145.825
ESTCUBE 1 27 Nov 23:03:03 23:07:36 84° 75° (ENE) 23:12:12 437.505/2401.250
CINEMA 3 27 Nov 23:05:09 23:06:54 12° 270° (W) 23:08:39 145.822/145.860
NANOSAT C BR1 27 Nov 23:05:58 23:09:39 28° 96° (E) 23:13:18 145.865
SPROUT 27 Nov 23:10:09 23:13:34 23° 66° (ENE) 23:17:00 437.525
BUGSAT 1 27 Nov 23:15:50 23:19:24 29° 96° (E) 23:22:56 437.445
QB50P1 27 Nov 23:16:00 23:19:55 36° 98° (E) 23:23:49 145.935-145.965
FUNcube-1 27 Nov 23:25:32 23:27:54 15° 269° (W) 23:30:17 145.935
AISAT 27 Nov 23:25:54 23:29:27 23° 266° (W) 23:33:00 437.250
50 SAT 27 Nov 23:27:33 23:30:50 24° 265° (W) 23:34:08 437.505
CUBEBUG 1 27 Nov 23:29:46 23:34:07 53° 260° (W) 23:38:29 437.445
TIGRISAT 27 Nov 23:38:30 23:42:58 89° 284° (WNW) 23:47:30 435.000
POPSAT HIP 1 27 Nov 23:40:55 23:45:08 68° 102° (ESE) 23:49:20 437.405
BEESAT 27 Nov 23:44:37 23:46:33 12° 57° (ENE) 23:48:29 436.000
CUSAT 1 27 Nov 23:48:18 23:52:56 57° 78° (ENE) 23:59:10 437.405
UNISAT 6 27 Nov 23:53:26 23:57:51 63° 287° (WNW) 00:02:20 437.425
HUMSAT D 27 Nov 23:55:33 23:56:50 11° 271° (W) 23:58:07 437.325/437.525
AUBIESAT-1 28 Nov 00:15:45 00:19:38 36° 62° (ENE) 00:23:50 437.475
POLYITAN 1 28 Nov 00:15:57 00:20:03 49° 288° (WNW) 00:24:08 437.675
QB50P2 28 Nov 00:17:07 00:21:12 48° 288° (WNW) 00:25:16 145.880/145.840
MaSat-1 28 Nov 00:18:18 00:20:33 48° 60° (ENE) 00:22:52 437.345
DUCHIFAT 1 28 Nov 00:21:46 00:25:47 44° 289° (WNW) 00:29:46 145.980
M-CUBED/EXP-1 PRIME 28 Nov 00:22:22 00:26:23 45° 65° (ENE) 00:30:45 437.505
ANTELSAT 28 Nov 00:22:49 00:26:48 33° 292° (WNW) 00:30:50 437.575/2403.000
DANDE 28 Nov 00:23:40 00:28:14 84° 260° (W) 00:34:29 436.750
TISAT 1 28 Nov 00:28:39 00:32:46 46° 261° (W) 00:36:53 437.305
ISS 28 Nov 00:36:48 00:40:01 53° 336° (NNW) 00:43:16 145.825
ITUPSAT 1 28 Nov 00:38:41 00:43:04 36° 68° (ENE) 00:47:29 437.325
NANOSAT C BR1 28 Nov 00:41:53 00:45:29 28° 293° (WNW) 00:49:04 145.865
ESTCUBE 1 28 Nov 00:44:08 00:45:05 11° 273° (W) 00:46:03 437.505/2401.250
RS-15 28 Nov 00:45:30 00:56:42 72° 50° (NE) 01:08:22 29.354- 29.394
SPROUT 28 Nov 00:45:30 00:49:29 36° 263° (W) 00:53:29 437.525
SWISSCUBE 28 Nov 00:48:28 00:53:05 49° 70° (ENE) 00:57:44 437.505
BUGSAT 1 28 Nov 00:51:27 00:54:50 25° 293° (WNW) 00:58:10 437.445
QB50P1 28 Nov 00:52:21 00:55:38 22° 295° (WNW) 00:58:54 145.935-145.965
KKS-1 28 Nov 01:11:56 01:14:52 18° 62° (ENE) 01:17:49 437.445
TIGRISAT 28 Nov 01:17:46 01:19:03 11° 301° (WNW) 01:20:22 435.000
POPSAT HIP 1 28 Nov 01:18:31 01:20:31 13° 299° (WNW) 01:22:31 437.405
BEESAT 28 Nov 01:18:51 01:23:39 87° 75° (ENE) 01:28:30 436.000
YUBILEINY 28 Nov 01:22:21 01:28:19 21° 77° (ENE) 01:34:15 435.215
CUSAT 1 28 Nov 01:32:23 01:35:59 20° 268° (W) 01:40:17 437.405
AUBIESAT-1 28 Nov 01:51:17 01:54:44 25° 262° (W) 01:58:27 437.475
Oscar 19 28 Nov 01:53:48 01:58:42 42° 98° (E) 02:03:35 437.125/150
M-CUBED/EXP-1 PRIME 28 Nov 01:58:40 02:01:43 20° 264° (W) 02:04:59 437.505
Gurwin Techsat 1B 28 Nov 02:00:21 02:01:45 11° 86° (E) 02:03:08 435.225
STARS 28 Nov 02:01:43 02:05:44 36° 69° (ENE) 02:09:45 437.465
DANDE 28 Nov 02:10:39 02:11:31 10° 271° (W) 02:12:25 436.750
ISS 28 Nov 02:14:21 02:17:09 25° 356° (N) 02:19:57 145.825
ITUPSAT 1 28 Nov 02:16:55 02:21:01 28° 265° (W) 02:25:09 437.325
SWISSCUBE 28 Nov 02:27:39 02:31:13 21° 268° (W) 02:34:48 437.505
KKS-1 28 Nov 02:46:46 02:51:07 54° 259° (W) 02:55:30 437.445
PCSat 28 Nov 02:48:36 02:51:56 16° 34° (NE) 02:55:14 145.827
BEESAT 2 28 Nov 02:50:05 02:51:16 11° 29° (NNE) 02:52:27 435.950
ITAMSAT 1 28 Nov 02:51:48 02:56:54 55° 101° (E) 03:01:57 435.822/435.867
RS-15 28 Nov 02:58:31 03:08:21 37° 253° (WSW) 03:18:34 29.354- 29.394
BEESAT 28 Nov 03:00:51 03:02:10 11° 273° (W) 03:03:28 436.000
SO-50 28 Nov 03:08:13 03:11:56 26° 113° (ESE) 03:15:45 436.795
YUBILEINY 28 Nov 03:15:05 03:23:54 88° 278° (W) 03:32:44 435.215
Oscar 19 28 Nov 03:33:31 03:37:51 28° 296° (WNW) 03:42:11 437.125/150
AIST 2 28 Nov 03:33:59 03:36:16 14° 32° (NNE) 03:38:31 435.215
Gurwin Techsat 1B 28 Nov 03:37:10 03:42:31 83° 104° (ESE) 03:47:50 435.225
STARS 28 Nov 03:38:46 03:42:18 24° 266° (W) 03:45:52 437.465
ISS 28 Nov 03:51:21 03:54:24 34° 16° (NNE) 03:57:27 145.825
HORYU 2 28 Nov 03:54:19 03:58:45 56° 101° (E) 04:03:11 437.375
MOZHAYETS 4 28 Nov 04:07:56 04:12:02 33° 68° (ENE) 04:16:10
AO-7 28 Nov 04:08:28 04:15:46 32° 95° (E) 04:23:01 29.400- 29.500
BEESAT 3 28 Nov 04:09:07 04:13:04 38° 47° (NE) 04:16:59 437.485
JAS-2 28 Nov 04:22:47 04:25:38 13° 81° (E) 04:28:20 435.910
BEESAT 2 28 Nov 04:26:26 04:30:34 50° 50° (NE) 04:34:38 435.950
PCSat 28 Nov 04:30:58 04:36:24 68° 56° (NE) 04:41:47 145.827
PRISM 28 Nov 04:32:03 04:33:37 12° 59° (ENE) 04:35:12 437.425
ITAMSAT 1 28 Nov 04:32:06 04:36:01 22° 299° (WNW) 04:39:54 435.822/435.867
SO-50 28 Nov 04:47:54 04:52:15 44° 313° (NW) 04:56:46 436.795
AIST 2 28 Nov 05:11:23 05:15:42 69° 53° (NE) 05:19:57 435.215
YUBILEINY 28 Nov 05:15:46 05:22:04 21° 301° (WNW) 05:28:24 435.215
Gurwin Techsat 1B 28 Nov 05:18:42 05:21:48 16° 302° (WNW) 05:24:54 435.225
ISS 28 Nov 05:27:57 05:31:11 57° 215° (SW) 05:34:25 145.825
HORYU 2 28 Nov 05:32:04 05:35:01 17° 298° (WNW) 05:37:57 437.375
MOZHAYETS 4 28 Nov 05:45:18 05:49:16 28° 265° (W) 05:53:17
STRAND 1 28 Nov 05:46:11 05:50:35 30° 65° (ENE) 05:55:00 437.568
BEESAT 3 28 Nov 05:47:41 05:51:08 25° 246° (WSW) 05:54:33 437.485
Cubesat XI-IV 28 Nov 05:50:41 05:53:44 15° 89° (E) 05:56:45 437.490
O/OREOS (USA 219) 28 Nov 05:51:46 05:56:02 46° 108° (ESE) 06:00:19 437.305
CUBESAT XI-V 28 Nov 05:55:59 06:00:12 33° 68° (ENE) 06:04:26 437.345
AO-7 28 Nov 06:00:48 06:09:01 63° 295° (WNW) 06:17:13 29.400- 29.500
PRISM 28 Nov 06:04:20 06:08:33 79° 256° (WSW) 06:12:50 437.425
JAS-2 28 Nov 06:04:59 06:12:06 76° 103° (ESE) 06:18:19 435.910
BEESAT 2 28 Nov 06:05:31 06:08:31 19° 248° (WSW) 06:11:29 435.950
PCSat 28 Nov 06:15:30 06:19:15 19° 254° (WSW) 06:23:00 145.827
AIST 1 28 Nov 06:29:58 06:34:01 36° 75° (ENE) 06:38:01
CUTE-I 28 Nov 06:30:06 06:34:54 34° 96° (E) 06:39:40 437.470
SO-50 28 Nov 06:32:17 06:34:03 12° 335° (NNW) 06:35:50 436.795
AIST 2 28 Nov 06:51:32 06:53:47 14° 251° (WSW) 06:56:01 435.215
GONETS M04 28 Nov 07:12:17 07:18:43 23° 78° (ENE) 07:25:11
STRAND 1 28 Nov 07:24:51 07:29:38 39° 262° (W) 07:34:27 437.568
Cubesat XI-IV 28 Nov 07:29:04 07:34:25 75° 287° (WNW) 07:39:42 437.490
O/OREOS (USA 219) 28 Nov 07:32:11 07:35:40 22° 307° (NW) 07:39:10 437.305
CUBESAT XI-V 28 Nov 07:33:33 07:37:39 29° 265° (W) 07:41:46 437.345
JAS-2 28 Nov 07:51:00 07:56:18 23° 305° (NW) 08:01:11 435.910
AO-7 28 Nov 07:55:18 08:00:13 17° 317° (NW) 08:05:09 29.400- 29.500
AIST 1 28 Nov 08:08:08 08:11:27 21° 273° (W) 08:14:44
CUTE-I 28 Nov 08:10:10 08:14:58 35° 294° (WNW) 08:19:44 437.470
CUTE 1.7 + AOD 2 28 Nov 08:51:04 08:54:12 19° 92° (E) 08:57:19 437.475
BRITE-PL 28 Nov 08:58:58 09:02:12 22° 94° (E) 09:05:28 437.365/2234.400
DOVE 4 28 Nov 09:02:29 09:04:30 13° 90° (E) 09:06:33 437.250
GONETS M04 28 Nov 09:05:39 09:14:29 81° 279° (W) 09:23:24
TIGRISAT 28 Nov 09:06:15 09:07:41 12° 59° (ENE) 09:09:07 435.000
Cubesat XI-IV 28 Nov 09:11:32 09:13:36 12° 306° (NW) 09:15:40 437.490
CINEMA 3 28 Nov 09:19:38 09:21:27 12° 90° (E) 09:23:18 145.822/145.860
UNISAT 6 28 Nov 09:19:59 09:22:38 16° 62° (ENE) 09:25:17 437.425
SEEDS 28 Nov 09:20:14 09:24:08 34° 97° (E) 09:28:02 437.485
DELFI C3 28 Nov 09:25:37 09:27:23 12° 89° (E) 09:29:09 145.870
UKube-1 28 Nov 09:28:15 09:30:25 13° 90° (E) 09:32:34 .
HO-68 28 Nov 09:29:56 09:36:58 55° 101° (E) 09:43:56 435.675
AAUSAT CUBESAT 2 28 Nov 09:31:50 09:35:42 33° 97° (E) 09:39:33 437.432
Oscar 11 28 Nov 09:36:39 09:39:54 20° 93° (E) 09:43:09 145.826/435.025
POLYITAN 1 28 Nov 09:37:00 09:39:47 17° 63° (ENE) 09:42:33 437.675
QB50P2 28 Nov 09:37:54 09:40:43 18° 63° (ENE) 09:43:33 145.880/145.840
DUCHIFAT 1 28 Nov 09:42:00 09:44:59 19° 64° (ENE) 09:47:58 145.980
ANTELSAT 28 Nov 09:47:47 09:51:30 30° 68° (ENE) 09:55:14 437.575/2403.000
COMPASS 1 28 Nov 09:48:45 09:52:58 58° 100° (E) 09:57:09 437.405
CANX-2 28 Nov 09:51:44 09:56:03 88° 286° (WNW) 10:00:22 2200.000
GOMX 1 28 Nov 09:54:45 09:58:53 63° 101° (E) 10:03:08 467.674
SO-50 28 Nov 09:57:51 09:59:52 12° 26° (NNE) 10:01:53 436.795
NANOSAT C BR1 28 Nov 10:01:03 10:04:43 29° 68° (ENE) 10:08:23 145.865
DX 1 28 Nov 10:05:04 10:09:02 33° 97° (E) 10:12:56 434.975-435.025
UWE-3 28 Nov 10:07:00 10:10:21 22° 94° (E) 10:13:45 435.000/436.395/437.385
BUGSAT 1 28 Nov 10:08:10 10:11:49 29° 68° (ENE) 10:15:27 437.445
QB50P1 28 Nov 10:11:03 10:14:57 36° 69° (ENE) 10:18:51 145.935-145.965
CUBEBUG 2 28 Nov 10:11:59 10:15:42 28° 96° (E) 10:19:29 437.445
CUTE 1.7 + AOD 2 28 Nov 10:26:16 10:30:19 42° 289° (WNW) 10:34:22 437.475
ZACube-1 28 Nov 10:35:45 10:39:43 37° 98° (E) 10:43:45 437.345
POPSAT HIP 1 28 Nov 10:35:51 10:40:04 67° 74° (ENE) 10:44:17 437.405
BRITE-PL 28 Nov 10:37:06 10:40:50 33° 291° (WNW) 10:44:37 437.365/2234.400
DOVE 4 28 Nov 10:38:33 10:42:40 59° 286° (WNW) 10:46:55 437.250
TIGRISAT 28 Nov 10:39:34 10:43:49 80° 257° (WSW) 10:48:06 435.000
VELOX 1 28 Nov 10:46:30 10:50:25 30° 96° (E) 10:54:17 145.980
UNISAT 6 28 Nov 10:54:52 10:59:02 53° 260° (W) 11:03:14 437.425
CINEMA 3 28 Nov 10:54:53 10:59:05 64° 286° (WNW) 11:03:24 145.822/145.860
ESTCUBE 1 28 Nov 10:55:28 10:58:12 16° 90° (E) 11:00:55 437.505/2401.250
SEEDS 28 Nov 10:56:22 10:59:50 24° 294° (WNW) 11:03:17 437.485
DELFI C3 28 Nov 10:59:00 11:03:06 62° 286° (WNW) 11:07:11 145.870
UKube-1 28 Nov 11:02:42 11:07:00 62° 287° (WNW) 11:11:16 .
50 SAT 28 Nov 11:05:46 11:09:37 39° 98° (E) 11:13:27 437.505
GONETS M04 28 Nov 11:06:57 11:12:54 19° 303° (WNW) 11:18:53
AAUSAT CUBESAT 2 28 Nov 11:07:49 11:11:14 24° 294° (WNW) 11:14:38 437.432
FUNcube-1 28 Nov 11:09:52 11:14:08 87° 103° (ESE) 11:18:29 145.935
POLYITAN 1 28 Nov 11:11:14 11:15:22 50° 260° (W) 11:19:31 437.675
Oscar 11 28 Nov 11:12:09 11:16:15 41° 290° (WNW) 11:20:20 145.826/435.025
QB50P2 28 Nov 11:12:10 11:16:18 49° 260° (W) 11:20:26 145.880/145.840
AISAT 28 Nov 11:14:07 11:18:31 59° 101° (E) 11:22:52 437.250
DUCHIFAT 1 28 Nov 11:16:29 11:20:33 45° 261° (W) 11:24:38 145.980
CUBEBUG 1 28 Nov 11:17:34 11:21:07 24° 94° (E) 11:24:38 437.445
HO-68 28 Nov 11:18:06 11:24:22 34° 301° (WNW) 11:30:37 435.675
ANTELSAT 28 Nov 11:24:42 11:28:19 26° 265° (W) 11:31:57 437.575/2403.000
COMPASS 1 28 Nov 11:25:47 11:28:15 15° 298° (WNW) 11:30:43 437.405
YUBILEINY 28 Nov 11:29:45 11:32:09 11° 49° (NE) 11:34:32 435.215
CANX-2 28 Nov 11:30:38 11:31:18 10° 301° (WNW) 11:31:58 2200.000
GOMX 1 28 Nov 11:34:33 11:36:35 13° 298° (WNW) 11:38:39 467.674
HUMSAT D 28 Nov 11:34:52 11:39:04 82° 285° (WNW) 11:43:17 437.325/437.525
NANOSAT C BR1 28 Nov 11:36:55 11:40:34 28° 264° (W) 11:44:14 145.865
SO-50 28 Nov 11:36:59 11:41:39 45° 47° (NE) 11:46:21 436.795
Oscar 19 28 Nov 11:37:43 11:39:13 11° 55° (NE) 11:40:44 437.125/150
DX 1 28 Nov 11:41:34 11:45:09 26° 295° (WNW) 11:48:42 434.975-435.025
UWE-3 28 Nov 11:43:06 11:47:01 36° 290° (WNW) 11:50:59 435.000/436.395/437.385
BUGSAT 1 28 Nov 11:43:37 11:47:16 28° 264° (W) 11:50:56 437.445
QB50P1 28 Nov 11:47:39 11:50:57 22° 266° (W) 11:54:16 145.935-145.965
CUBEBUG 2 28 Nov 11:48:44 11:52:23 28° 292° (WNW) 11:56:06 437.445
TISAT 1 28 Nov 12:12:20 12:15:45 24° 94° (E) 12:19:08 437.305
ZACube-1 28 Nov 12:12:38 12:15:55 22° 294° (WNW) 12:19:14 437.345
POPSAT HIP 1 28 Nov 12:14:45 12:16:26 12° 271° (W) 12:18:06 437.405
VELOX 1 28 Nov 12:23:08 12:26:57 29° 293° (WNW) 12:30:44 145.980
SPROUT 28 Nov 12:30:21 12:34:14 33° 97° (E) 12:38:06 437.525
ESTCUBE 1 28 Nov 12:30:59 12:35:27 58° 288° (WNW) 12:39:53 437.505/2401.250
ITAMSAT 1 28 Nov 12:35:07 12:38:08 16° 58° (ENE) 12:41:09 435.822/435.867
50 SAT 28 Nov 12:41:44 12:44:41 20° 295° (WNW) 12:47:38 437.505
FUNcube-1 28 Nov 12:48:52 12:49:52 11° 300° (WNW) 12:50:53 145.935
SWISSCUBE 28 Nov 12:49:59 12:50:55 11° 87° (E) 12:51:51 437.505
AISAT 28 Nov 12:52:00 12:54:42 16° 299° (WNW) 12:57:23 437.250
CUBEBUG 1 28 Nov 12:53:37 12:57:34 34° 291° (WNW) 13:01:29 437.445
CUSAT 1 28 Nov 13:05:15 13:07:44 42° 97° (E) 13:10:18 437.405
Oscar 19 28 Nov 13:12:34 13:17:39 73° 73° (ENE) 13:22:47 437.125/150
SO-50 28 Nov 13:17:52 13:22:03 29° 246° (WSW) 13:26:13 436.795
BEESAT 28 Nov 13:18:17 13:21:46 20° 92° (E) 13:25:13 436.000
Gurwin Techsat 1B 28 Nov 13:21:59 13:26:06 23° 62° (ENE) 13:30:13 435.225
AO-7 28 Nov 13:22:27 13:26:22 14° 40° (NE) 13:30:18 29.400- 29.500
YUBILEINY 28 Nov 13:23:02 13:31:31 52° 74° (ENE) 13:39:54 435.215
AUBIESAT-1 28 Nov 13:31:33 13:35:36 25° 98° (E) 13:39:32 437.475
M-CUBED/EXP-1 PRIME 28 Nov 13:38:32 13:42:57 32° 100° (E) 13:47:14 437.505
DANDE 28 Nov 13:43:27 13:46:03 51° 283° (WNW) 13:48:38 436.750
TISAT 1 28 Nov 13:47:52 13:51:39 33° 291° (WNW) 13:55:24 437.305
SPROUT 28 Nov 14:06:42 14:10:12 25° 294° (WNW) 14:13:40 437.525
VERMONT LUNAR 28 Nov 14:08:32 14:11:17 21° 158° (SSE) 14:14:02 437.305
PHONESAT 2.4 28 Nov 14:09:18 14:11:46 17° 154° (SSE) 14:14:15 2401.200-2431.200
ITAMSAT 1 28 Nov 14:11:44 14:16:57 82° 256° (WSW) 14:22:12 435.822/435.867
ITUPSAT 1 28 Nov 14:14:48 14:19:37 67° 102° (ESE) 14:24:23 437.325
O/OREOS (USA 219) 28 Nov 14:21:17 14:24:11 17° 50° (NE) 14:27:06 437.305
SWISSCUBE 28 Nov 14:24:38 14:29:28 90° 287° (WNW) 14:34:15 437.505
KKS-1 28 Nov 14:36:34 14:40:14 25° 95° (E) 14:43:53 437.445
JAS-2 28 Nov 14:38:37 14:41:04 12° 45° (NE) 14:43:30 435.910
Oscar 19 28 Nov 14:54:42 14:57:33 15° 271° (W) 15:00:25 437.125/150
HORYU 2 28 Nov 14:54:47 14:59:10 66° 73° (ENE) 15:03:36 437.375
BEESAT 28 Nov 14:55:15 14:59:54 50° 289° (WNW) 15:04:30 436.000
Gurwin Techsat 1B 28 Nov 15:00:31 15:05:42 53° 260° (W) 15:10:55 435.225
AUBIESAT-1 28 Nov 15:06:03 15:10:43 44° 296° (WNW) 15:15:16 437.475
AO-7 28 Nov 15:09:21 15:17:17 53° 62° (ENE) 15:25:16 29.400- 29.500
M-CUBED/EXP-1 PRIME 28 Nov 15:13:27 15:17:57 36° 298° (WNW) 15:22:21 437.505
MaSat-1 28 Nov 15:21:34 15:24:26 76° 298° (WNW) 15:27:03 437.345
